Overview Statistics Trail Chart Weather Telemetry Raw packets
 

This is the latest recevied weather packets stored in our database for station/object KE8AFF-13. If no packets are shown the sender has not sent any weather packets the latest 10 day(s).

<< 1 2 3 4 5 6 >>
Time Temp. Humidity Pressure Rain* Wind** Luminosity Snow
1788600296 20° C 99% 1014.1 hPa 0.51 mm - 0 W/m² -
1788599991 19.44° C 99% 1014.1 hPa 0.51 mm - 0 W/m² -
1788599690 19.44° C 99% 1014.5 hPa 4.32 mm - 0 W/m² -
1788599390 20° C 99% 1014.4 hPa 22.1 mm - 0 W/m² -
1788599080 20° C 99% 1015.3 hPa 31.75 mm - 0 W/m² -
1788598778 20.56° C 99% 1016 hPa 13.72 mm - 0 W/m² -
1788598478 20° C 99% 1016 hPa 3.05 mm - 0 W/m² -
1788598174 20° C 99% 1015.7 hPa 4.32 mm - 0 W/m² -
1788597873 20° C 99% 1015.2 hPa 4.83 mm - 0 W/m² -
1788597568 20° C 99% 1014.4 hPa 6.1 mm - 0 W/m² -
1788597264 20° C 99% 1013.7 hPa 4.83 mm - 0 W/m² -
1788596960 20° C 99% 1012.9 hPa 8.38 mm - 0 W/m² -
1788596655 20° C 99% 1013 hPa 21.08 mm - 0 W/m² -
1788596350 20° C 99% 1013.2 hPa 16.26 mm - 0 W/m² -
1788596045 20.56° C 99% 1013.5 hPa 12.7 mm - 0 W/m² -
1788595744 20.56° C 99% 1013.8 hPa 28.19 mm - 0 W/m² -
1788595439 20.56° C 98% 1013.3 hPa 26.42 mm - 0 W/m² -
1788595137 20.56° C 97% 1013 hPa 14.48 mm - 0 W/m² -
1788594831 21.11° C 96% 1012.9 hPa 14.48 mm - 0 W/m² -
1788594530 21.67° C 95% 1013 hPa 3.05 mm - 0 W/m² -
1788594227 21.67° C 99% 1012.8 hPa 0 mm - 0 W/m² -
1788593922 22.22° C 99% 1013.1 hPa 0 mm - 0 W/m² -
1788593617 22.22° C 99% 1013 hPa 0 mm - 0 W/m² -
1788593312 22.22° C 99% 1012.6 hPa 0 mm - 0 W/m² -
1788593007 22.22° C 99% 1012 hPa 0 mm - 0 W/m² -

* Rain latest hour (hover to see other rain measurements)
** Current wind speed in m/s (hover to see current wind gust speed)